DW1354 Weather Reports


Display with metric or nautical units.
time (UTC)temp
F
wind
direction
speed
MPH
gust
MPH
rain 1hr
in
rain 24hr
in
rain mn
in
humidity
%
barometer
mb
20210619115518 70 0.0 0.0 0.00 0.00 0.00 87 1010.6
20210619114517 70 0.0 0.0 0.00 0.00 0.00 87 1010.5
20210619113518 70 0.0 0.0 0.00 0.00 0.00 87 1010.2
20210619112518 70 0.0 0.0 0.00 0.00 0.00 87 1010.2
20210619111516 69 0.0 0.0 0.00 0.00 0.00 87 1010.2
20210619110518 69 0.0 0.0 0.00 0.00 0.00 87 1010.2
20210619105516 69 0.0 0.0 0.00 0.00 0.00 86 1010.2
20210619104516 68 0.0 0.0 0.00 0.00 0.00 85 1010.1
20210619103516 68 0.0 0.0 0.00 0.00 0.00 85 1010.1
20210619102517 69 0.0 0.0 0.00 0.00 0.00 85 1009.9
20210619101516 69 0.0 0.0 0.00 0.00 0.00 84 1009.7
20210619100516 69 0.0 0.0 0.00 0.00 0.00 84 1009.7
20210619095517 69 0.0 0.0 0.00 0.00 0.00 83 1009.6
20210619094518 69 0.0 0.0 0.00 0.00 0.00 83 1009.5
20210619093516 69 0.0 0.0 0.00 0.00 0.00 83 1009.4
20210619092518 69 0.0 0.0 0.00 0.00 0.00 82 1009.4
20210619091517 69 0.0 0.0 0.00 0.00 0.00 82 1009.4
20210619090517 70 0.0 0.0 0.00 0.00 0.00 81 1009.4
20210619085517 70 0.0 0.0 0.00 0.00 0.00 81 1009.4
20210619084520 70 0.0 0.0 0.00 0.00 0.00 80 1009.4
20210619083516 70 0.0 0.0 0.00 0.00 0.00 80 1009.5
20210619082516 71 0.0 0.0 0.00 0.00 0.00 79 1009.6
20210619081517 71 0.0 0.0 0.00 0.00 0.00 78 1009.8
20210619080516 71 0.0 0.0 0.00 0.00 0.00 77 1009.7
20210619075518 72 0.0 0.0 0.00 0.00 0.00 76 1009.8
20210619074517 72 0.0 0.0 0.00 0.00 0.00 75 1010.1
20210619073518 73 0.0 0.0 0.00 0.00 0.00 75 1010.2
20210619072516 73 0.0 0.0 0.00 0.00 0.00 74 1010.1
20210619071516 73 0.0 0.0 0.00 0.00 0.00 73 1010.0
20210619070516 73 0.0 0.0 0.00 0.00 0.00 73 1009.8
20210619065516 73 0.0 0.0 0.00 0.00 0.00 74 1009.7
20210619064516 73 0.0 0.0 0.00 0.00 0.00 74 1009.9
20210619063516 74 0.0 0.0 0.00 0.00 0.00 73 1010.1
20210619062519 74 0.0 0.0 0.00 0.00 0.00 73 1010.1
20210619061517 74 0.0 0.0 0.00 0.00 0.00 73 1010.0
20210619060516 74 0.0 0.0 0.00 0.00 0.00 73 1010.4
20210619055517 74 0.0 0.0 0.00 0.00 0.00 71 1010.5
20210619054519 75 0.0 0.0 0.00 0.00 0.00 71 1010.7
20210619053516 76 0.0 0.0 0.00 0.00 0.00 69 1010.9
20210619052517 76 0.0 0.0 0.00 0.00 0.00 68 1011.2
20210619051516 76 0.0 0.0 0.00 0.00 0.00 67 1011.5
20210619050516 76 0.0 0.0 0.00 0.00 0.00 68 1011.6
20210619045516 76 0.0 0.0 0.00 0.00 0.00 66 1011.7
20210619044516 76 0.0 0.0 0.00 0.00 0.00 67 1011.9
20210619043516 76 0.0 0.0 0.00 0.00 0.00 67 1012.2
20210619042516 76 0.0 0.0 0.00 0.00 0.00 66 1012.4
20210619041516 76 0.0 0.0 0.00 0.00 0.00 66 1012.3
20210619040518 75 0.0 0.0 0.00 0.00 0.00 68 1012.3
20210619035518 75 0.0 0.0 0.00 0.00 0.00 69 1012.6
20210619034516 74 0.0 0.0 0.00 0.00 0.00 72 1012.6
20210619033516 73 0.0 0.0 0.00 0.00 0.00 73 1012.6
20210619032516 73 0.0 0.0 0.00 0.00 0.00 75 1012.5
20210619031519 73 0.0 0.0 0.00 0.00 0.00 74 1012.3
20210619030516 73 0.0 0.0 0.00 0.00 0.00 74 1012.2
20210619025517 73 0.0 0.0 0.00 0.00 0.00 73 1011.9
20210619024516 73 0.0 0.0 0.00 0.00 0.00 73 1011.9
20210619023516 73 0.0 0.0 0.00 0.00 0.00 72 1011.7
20210619022516 74 0.0 0.0 0.00 0.00 0.00 71 1012.0
20210619021516 74 0.0 0.0 0.00 0.00 0.00 70 1012.0
20210619020516 74 0.0 0.0 0.00 0.00 0.00 70 1012.0
20210619015516 75 0.0 0.0 0.00 0.00 0.00 70 1012.1
20210619014516 75 0.0 0.0 0.00 0.00 0.00 69 1012.2
20210619013518 75 0.0 0.0 0.00 0.00 0.00 69 1012.3
20210619012516 75 0.0 0.0 0.00 0.00 0.00 68 1012.2
20210619011516 75 0.0 0.0 0.00 0.00 0.00 68 1012.3
20210619010517 75 0.0 0.0 0.00 0.00 0.00 68 1012.2
20210619005516 75 0.0 0.0 0.00 0.00 0.00 68 1012.3
20210619004516 75 0.0 0.0 0.00 0.00 0.00 68 1012.3
20210619003516 76 0.0 0.0 0.00 0.00 0.00 68 1012.3
20210619002516 76 0.0 0.0 0.00 0.00 0.00 67 1012.3
20210619001516 76 0.0 0.0 0.00 0.00 0.00 67 1012.2
20210619000518 76 0.0 0.0 0.00 0.00 0.00 67 1012.2
20210618235516 76 0.0 0.0 0.00 0.00 0.00 68 1012.1
20210618234516 76 0.0 0.0 0.00 0.00 0.00 68 1012.1
20210618233516 77 0.0 0.0 0.00 0.00 0.00 68 1011.9
20210618232516 77 0.0 0.0 0.00 0.00 0.00 68 1011.9
20210618231516 78 0.0 0.0 0.00 0.00 0.00 68 1011.9
20210618230516 78 0.0 0.0 0.00 0.00 0.00 67 1011.8
20210618225516 78 0.0 0.0 0.00 0.00 0.00 65 1011.7
20210618224519 78 0.0 0.0 0.00 0.00 0.00 66 1011.7
20210618223517 78 0.0 0.0 0.00 0.00 0.00 66 1011.5
20210618222517 78 0.0 0.0 0.00 0.00 0.00 67 1011.5
20210618221518 78 0.0 0.0 0.00 0.00 0.00 68 1011.6
20210618220516 78 0.0 0.0 0.00 0.00 0.00 69 1011.5
20210618215517 78 0.0 0.0 0.00 0.00 0.00 70 1011.9
20210618214516 78 0.0 0.0 0.00 0.00 0.00 70 1012.1
20210618213517 79 0.0 0.0 0.00 0.00 0.00 70 1012.7
20210618212517 79 0.0 0.0 0.00 0.00 0.00 70 1013.0
20210618211516 79 0.0 0.0 0.00 0.00 0.00 68 1013.3
20210618210517 79 0.0 0.0 0.00 0.00 0.00 66 1013.5
20210618205516 79 0.0 0.0 0.00 0.00 0.00 65 1013.7
20210618204516 80 0.0 0.0 0.00 0.00 0.00 64 1013.9
20210618203516 80 0.0 0.0 0.00 0.00 0.00 64 1013.9
20210618202516 80 0.0 0.0 0.00 0.00 0.00 64 1014.2
20210618201516 80 0.0 0.0 0.00 0.00 0.00 62 1014.5
20210618200516 80 0.0 0.0 0.00 0.00 0.00 61 1014.7
20210618195519 81 0.0 0.0 0.00 0.00 0.00 61 1014.8
20210618194516 81 0.0 0.0 0.00 0.00 0.00 59 1014.9
20210618193518 81 0.0 0.0 0.00 0.00 0.00 59 1015.1
20210618192516 81 0.0 0.0 0.00 0.00 0.00 58 1015.3
20210618191516 81 0.0 0.0 0.00 0.00 0.00 57 1015.5
20210618190516 82 0.0 0.0 0.00 0.00 0.00 56 1015.8
20210618185517 82 0.0 0.0 0.00 0.00 0.00 55 1016.1
20210618184517 82 0.0 0.0 0.00 0.00 0.00 54 1016.1
20210618183516 83 0.0 0.0 0.00 0.00 0.00 52 1016.2
20210618182517 83 0.0 0.0 0.00 0.00 0.00 51 1016.2
20210618181518 83 0.0 0.0 0.00 0.00 0.00 47 1016.3
20210618180516 83 0.0 0.0 0.00 0.00 0.00 49 1016.3
20210618175516 83 0.0 0.0 0.00 0.00 0.00 50 1016.4
20210618174516 84 0.0 0.0 0.00 0.00 0.00 46 1016.6
20210618173516 84 0.0 0.0 0.00 0.00 0.00 51 1016.7
20210618172517 84 0.0 0.0 0.00 0.00 0.00 49 1016.8
20210618171516 84 0.0 0.0 0.00 0.00 0.00 49 1016.9
20210618170517 83 0.0 0.0 0.00 0.00 0.00 49 1016.9
20210618165516 83 0.0 0.0 0.00 0.00 0.00 50 1016.9
20210618164516 83 0.0 0.0 0.00 0.00 0.00 50 1017.0
20210618163516 83 0.0 0.0 0.00 0.00 0.00 47 1017.0
20210618162516 82 0.0 0.0 0.00 0.00 0.00 51 1017.1
20210618161516 82 0.0 0.0 0.00 0.00 0.00 50 1017.3
20210618160516 81 0.0 0.0 0.00 0.00 0.00 51 1017.3
20210618155518 81 0.0 0.0 0.00 0.00 0.00 50 1017.2
20210618154516 81 0.0 0.0 0.00 0.00 0.00 48 1017.3
20210618153516 80 0.0 0.0 0.00 0.00 0.00 50 1017.3
20210618152516 80 0.0 0.0 0.00 0.00 0.00 49 1017.4
20210618151516 79 0.0 0.0 0.00 0.00 0.00 49 1017.3
20210618150517 79 0.0 0.0 0.00 0.00 0.00 49 1017.2
20210618145516 78 0.0 0.0 0.00 0.00 0.00 49 1017.1
20210618144519 78 0.0 0.0 0.00 0.00 0.00 49 1017.2
20210618143518 77 0.0 0.0 0.00 0.00 0.00 49 1017.3
20210618142516 77 0.0 0.0 0.00 0.00 0.00 47 1017.4
20210618141516 76 0.0 0.0 0.00 0.00 0.00 49 1017.1
20210618140516 76 0.0 0.0 0.00 0.00 0.00 47 1017.2
20210618135516 75 0.0 0.0 0.00 0.00 0.00 49 1017.3
20210618134516 74 0.0 0.0 0.00 0.00 0.00 47 1017.4
20210618133516 74 0.0 0.0 0.00 0.00 0.00 50 1017.7
20210618132516 73 0.0 0.0 0.00 0.00 0.00 54 1017.6
20210618131517 72 0.0 0.0 0.00 0.00 0.00 53 1017.6
20210618130516 72 0.0 0.0 0.00 0.00 0.00 55 1017.6
20210618125516 70 0.0 0.0 0.00 0.00 0.00 55 1017.7
20210618124517 69 0.0 0.0 0.00 0.00 0.00 58 1017.5
20210618123516 67 0.0 0.0 0.00 0.00 0.00 62 1017.2
20210618122516 65 0.0 0.0 0.00 0.00 0.00 69 1017.3
20210618121517 64 0.0 0.0 0.00 0.00 0.00 73 1017.3
20210618120516 64 0.0 0.0 0.00 0.00 0.00 76 1017.2